Zurück zum Katalog

STARLINK-3181

AktivKommunikationVLEO
NORAD 51461·PAYLOAD·🇺🇸 United States

Gestartet Feb 3, 2022 von Cape Canaveral Space Force Station

Loading…

Nächste Überflüge (nächste 24 Stunden)

TLE

AktuellSource: CelesTrak SupGP

Epoche: Sep 14, 2026, 21:30 UTC

1 51461C 22010F   26257.89631944 -.00022134  00000+0 -63307-3 0  2570
2 51461  53.1573 141.6926 0001305  81.8945 192.6886 15.35419770    19

Verfolge STARLINK-3181 in Echtzeit mit AllMySat

Download on the App Store